Date String (YYYY-MM-DD hh:mm:ss) UTC,Instrument flags,Ambient pressure (hPa),Sample flow (lpm),Bypass flow (lpm),Sample temperature (°C),Ambient temperature (°C),ASC tube jacket temperature (°C),LED temperature (°C),Box temperature (°C),Sample RH (%),Span deviation,Mass concentration (μg/m³),Mass concentration (μg/m³),Mass concentration (μg/m³)
DateTimeUTC,F1_M11,P_M11,Q1_M11,Q2_M11,T1_M11,T2_M11,T3_M11,T4_M11,T5_M11,U1_M11,ZSPAN_M11,X0_M11,X2_M11,X1_M11
2023-05-20 20:00:00,,0835.8,5.01,0.00,29.5,25.8,00.0,37.7,30.9,26.7,0002.9,0072.21,0054.06,0052.01
2023-05-20 20:01:00,,0835.8,5.01,0.00,29.4,25.7,00.0,37.7,30.8,27.0,0002.9,0072.07,0054.00,0051.96
2023-05-20 20:02:00,,0835.8,5.00,0.00,29.3,25.9,00.0,37.7,30.7,27.6,0002.9,0071.84,0053.87,0051.82
2023-05-20 20:03:00,,0835.8,4.98,0.00,29.3,26.2,00.0,37.7,30.8,26.1,0002.9,0071.55,0053.65,0051.60
2023-05-20 20:04:00,,0835.8,5.00,0.00,29.3,26.5,00.0,37.7,30.8,26.7,0002.9,0071.01,0053.32,0051.29
2023-05-20 20:05:00,,0835.8,5.01,0.00,29.3,26.8,00.0,37.7,30.8,26.1,0002.9,0070.77,0053.13,0051.10
2023-05-20 20:06:00,,0835.8,5.00,0.00,29.3,27.1,00.0,37.7,30.9,26.4,0002.9,0070.57,0053.02,0050.97
2023-05-20 20:07:00,,0835.8,5.00,0.00,29.3,27.3,00.0,37.7,30.9,26.5,0002.9,0070.02,0052.89,0050.85
2023-05-20 20:08:00,,0835.8,5.00,0.00,29.3,27.4,00.0,37.7,30.9,26.3,0003.0,0069.80,0052.69,0050.66
2023-05-20 20:09:00,,0835.9,5.00,0.00,29.3,27.6,00.0,37.7,31.0,26.3,0002.9,0069.62,0052.50,0050.49
2023-05-20 20:10:00,,0835.8,4.99,0.00,29.3,27.6,00.0,37.7,31.0,25.6,0002.9,0069.35,0052.35,0050.36
2023-05-20 20:11:00,,0835.8,4.98,0.00,29.3,27.7,00.0,37.7,31.0,25.6,0002.9,0068.97,0052.05,0050.12
2023-05-20 20:12:00,,0835.9,5.00,0.00,29.3,27.8,00.0,37.7,31.0,25.5,0002.9,0068.16,0051.77,0049.88
2023-05-20 20:13:00,,0835.8,5.01,0.00,29.4,27.8,00.0,37.7,31.0,25.2,0002.9,0067.79,0051.50,0049.60
2023-05-20 20:14:00,,0835.9,5.01,0.00,29.4,27.9,00.0,37.7,31.0,25.8,0003.0,0067.42,0051.32,0049.42
2023-05-20 20:15:00,,0835.8,5.01,0.00,29.4,27.9,00.0,37.7,31.0,25.6,0003.0,0067.51,0051.23,0049.33
2023-05-20 20:16:00,,0835.8,5.00,0.00,29.4,28.0,00.0,37.7,31.1,26.1,0003.0,0067.83,0051.11,0049.23
2023-05-20 20:17:00,,0835.8,4.99,0.00,29.4,28.0,00.0,37.7,31.1,25.4,0003.0,0068.08,0051.04,0049.11
2023-05-20 20:18:00,,0835.9,5.00,0.00,29.4,28.0,00.0,37.7,31.1,25.3,0003.1,0067.68,0050.92,0048.97
2023-05-20 20:19:00,,0835.8,5.00,0.00,29.5,28.1,00.0,37.7,31.1,25.5,0003.2,0067.50,0050.86,0048.90
2023-05-20 20:20:00,,0835.8,5.00,0.00,29.5,28.1,00.0,37.8,31.2,25.9,0003.2,0067.37,0050.76,0048.78
2023-05-20 20:21:00,,0835.8,5.00,0.00,29.5,28.2,00.0,37.8,31.2,26.1,0003.2,0067.40,0050.74,0048.72
2023-05-20 20:22:00,,0835.8,5.01,0.00,29.5,28.1,00.0,37.8,31.2,26.0,0003.3,0066.92,0050.64,0048.60
2023-05-20 20:23:00,,0835.7,4.98,0.00,29.5,26.8,00.0,37.7,31.1,25.4,0003.3,0066.61,0050.45,0048.42
2023-05-20 20:24:00,,0835.7,5.00,0.00,29.5,25.6,00.0,37.6,30.9,25.6,0003.3,0066.31,0050.30,0048.33
2023-05-20 20:25:00,,0835.7,5.01,0.00,29.4,25.6,00.0,37.6,30.8,26.4,0003.2,0066.34,0050.24,0048.25
2023-05-20 20:26:00,,0835.7,5.01,0.00,29.3,25.8,00.0,37.6,30.7,26.6,0003.2,0066.19,0050.18,0048.16
2023-05-20 20:27:00,,0835.7,5.00,0.00,29.3,26.1,00.0,37.6,30.8,26.5,0003.2,0066.05,0050.05,0048.01
2023-05-20 20:28:00,,0835.7,4.99,0.00,29.3,26.5,00.0,37.6,30.8,25.6,0003.3,0065.42,0049.91,0047.92
2023-05-20 20:29:00,,0835.7,5.00,0.00,29.3,26.8,00.0,37.6,30.8,26.0,0003.2,0065.06,0049.73,0047.80
2023-05-20 20:30:00,,0835.7,5.00,0.00,29.3,27.0,00.0,37.6,30.9,26.1,0003.2,0064.79,0049.57,0047.66
2023-05-20 20:31:00,,0835.7,5.00,0.00,29.3,27.2,00.0,37.6,30.9,26.1,0003.2,0064.60,0049.47,0047.57
2023-05-20 20:32:00,,0835.6,4.99,0.00,29.3,27.4,00.0,37.6,30.9,25.6,0003.2,0064.30,0049.31,0047.45
2023-05-20 20:33:00,,0835.6,5.00,0.00,29.3,27.6,00.0,37.6,31.0,25.8,0003.2,0064.36,0049.25,0047.36
2023-05-20 20:34:00,,0835.8,5.00,0.00,29.3,27.7,00.0,37.6,31.0,25.2,0003.2,0064.44,0049.27,0047.37
2023-05-20 20:35:00,,0835.6,5.00,0.00,29.3,27.8,00.0,37.6,31.0,25.0,0003.2,0065.21,0049.16,0047.24
2023-05-20 20:36:00,,0835.8,5.01,0.00,29.4,27.9,00.0,37.7,31.1,26.2,0003.2,0065.46,0048.98,0047.10
2023-05-20 20:37:00,,0835.7,5.00,0.00,29.4,28.0,00.0,37.7,31.1,25.4,0003.1,0065.73,0048.63,0046.78
2023-05-20 20:38:00,,0835.6,5.01,0.00,29.4,28.1,00.0,37.7,31.1,25.3,0003.0,0064.82,0048.39,0046.53
2023-05-20 20:39:00,,0835.6,5.01,0.00,29.4,28.1,00.0,37.7,31.1,26.1,0003.0,0064.90,0048.05,0046.24
2023-05-20 20:40:00,,0835.6,4.98,0.00,29.5,28.2,00.0,37.7,31.1,26.3,0003.1,0065.12,0047.84,0045.97
2023-05-20 20:41:00,,0835.6,4.99,0.00,29.5,28.2,00.0,37.7,31.2,25.2,0003.1,0064.70,0047.56,0045.72
2023-05-20 20:42:00,,0835.6,5.01,0.00,29.5,28.3,00.0,37.8,31.2,25.9,0003.0,0064.32,0047.30,0045.44
2023-05-20 20:43:00,,0835.6,5.00,0.00,29.5,28.3,00.0,37.8,31.2,25.6,0003.1,0063.98,0047.01,0045.12
2023-05-20 20:44:00,,0835.6,5.00,0.00,29.6,28.3,00.0,37.8,31.3,24.4,0003.1,0063.35,0046.59,0044.74
2023-05-20 20:45:00,,0835.6,5.00,0.00,29.6,28.2,00.0,37.8,31.3,24.9,0003.1,0062.65,0046.22,0044.40
2023-05-20 20:46:00,,0835.6,4.98,0.00,29.6,26.9,00.0,37.8,31.1,24.4,0003.0,0062.21,0046.12,0044.25
2023-05-20 20:47:00,,0835.6,5.02,0.00,29.5,25.8,00.0,37.7,30.9,24.6,0002.9,0061.03,0045.99,0044.13
2023-05-20 20:48:00,,0835.6,5.01,0.00,29.5,25.8,00.0,37.7,30.8,25.0,0003.0,0060.44,0045.93,0044.08
2023-05-20 20:49:00,,0835.6,4.99,0.00,29.4,26.0,00.0,37.7,30.8,25.5,0003.0,0060.06,0045.86,0044.02
2023-05-20 20:50:00,,0835.6,5.00,0.00,29.3,26.3,00.0,37.7,30.8,26.2,0003.1,0059.48,0045.76,0043.90
2023-05-20 20:51:00,,0835.6,5.01,0.00,29.3,26.6,00.0,37.7,30.9,25.0,0003.1,0058.64,0045.58,0043.73
2023-05-20 20:52:00,,0835.6,5.00,0.00,29.3,26.9,00.0,37.7,30.9,26.7,0003.1,0058.35,0045.39,0043.57
2023-05-20 20:53:00,,0835.6,5.00,0.00,29.3,27.2,00.0,37.7,31.0,27.1,0003.1,0058.29,0045.32,0043.53
2023-05-20 20:54:00,,0835.9,5.00,0.00,29.3,27.4,00.0,37.7,31.0,26.4,0003.1,0058.28,0045.29,0043.51
2023-05-20 20:55:00,,0835.7,5.00,0.00,29.4,27.6,00.0,37.7,31.0,25.8,0003.1,0059.09,0045.37,0043.56
2023-05-20 20:56:00,,0835.7,5.00,0.00,29.4,27.7,00.0,37.7,31.1,25.6,0003.1,0059.37,0045.43,0043.62
2023-05-20 20:57:00,,0835.8,5.00,0.00,29.4,27.8,00.0,37.7,31.1,25.5,0003.2,0059.50,0045.41,0043.63
2023-05-20 20:58:00,,0835.7,5.00,0.00,29.4,27.9,00.0,37.7,31.1,25.1,0003.2,0059.49,0045.28,0043.52
2023-05-20 20:59:00,,0835.7,5.00,0.00,29.4,28.0,00.0,37.7,31.1,25.4,0003.2,0059.44,0045.19,0043.42
